Terminal Aerodrome Forecast
Issued by NWS Aberdeen, SD

Home | Current Version | Previous Version | Text Only | Print | Product List | Glossary On
Versions: 1 2 3 4 5 6 7 8 9 10 11 12 13 14 15 16 17 18 19 20 21 22 23 24 25 26 27 28 29 30 31 32 33 34 35 36 37 38 39 40 41 42 43 44 45 46 47 48 49 50
953
FTAK31 PAFA 101128
TAFABR
TAF
PABR 101128Z 1012/1112 07011KT 5SM BR OVC010
      TEMPO 1012/1015 2SM -SHSN BR
     FM101500 07016KT 4SM BLSN BR FEW010 OVC015
     FM102000 06021KT 2SM BLSN BR FEW007 OVC015
     FM110800 06025KT 2SM BLSN BR SCT007 OVC015=

USA.gov is the U.S. government's official web portal to all federal, state and local government web resources and services.